TimeMST,TemperatureF,Dew PointF,Humidity,Sea Level PressureIn,VisibilityMPH,Wind Direction,Wind SpeedMPH,Gust SpeedMPH,PrecipitationIn,Events,Conditions,WindDirDegrees,DateUTC
12:53 AM,51.1,14.0,23,29.64,10.0,SSW,15.0,-,N/A,,Scattered Clouds,200,2011-11-25 07:53:00
1:53 AM,52.0,14.0,22,29.62,10.0,SSW,13.8,-,N/A,,Scattered Clouds,200,2011-11-25 08:53:00
2:53 AM,48.0,15.1,27,29.64,10.0,West,9.2,-,N/A,,Mostly Cloudy,280,2011-11-25 09:53:00
3:53 AM,48.0,15.1,27,29.70,10.0,West,15.0,-,N/A,,Mostly Cloudy,260,2011-11-25 10:53:00
4:53 AM,51.1,17.1,26,29.70,10.0,West,9.2,23.0,N/A,,Mostly Cloudy,270,2011-11-25 11:53:00
5:53 AM,50.0,17.1,27,29.71,10.0,West,5.8,-,N/A,,Mostly Cloudy,270,2011-11-25 12:53:00
6:53 AM,46.0,19.0,34,29.72,10.0,SW,6.9,-,N/A,,Mostly Cloudy,230,2011-11-25 13:53:00
7:53 AM,48.9,19.0,31,29.73,10.0,West,6.9,-,N/A,,Mostly Cloudy,280,2011-11-25 14:53:00
8:53 AM,50.0,19.4,30,29.81,10.0,NNW,9.2,-,N/A,,Mostly Cloudy,330,2011-11-25 15:53:00
9:53 AM,46.9,18.0,32,29.76,10.0,ENE,10.4,-,N/A,,Mostly Cloudy,60,2011-11-25 16:53:00
10:53 AM,48.0,19.9,33,29.76,10.0,ESE,9.2,-,N/A,,Mostly Cloudy,120,2011-11-25 17:53:00
11:53 AM,48.9,19.0,31,29.74,10.0,Calm,Calm,-,N/A,,Mostly Cloudy,0,2011-11-25 18:53:00
12:53 PM,52.0,19.0,27,29.69,10.0,SSW,4.6,-,N/A,,Mostly Cloudy,200,2011-11-25 19:53:00
1:53 PM,55.4,17.6,23,29.79,10.0,West,8.1,-,N/A,,Mostly Cloudy,270,2011-11-25 20:53:00
2:53 PM,55.0,15.1,21,29.65,10.0,WNW,20.7,28.8,N/A,,Mostly Cloudy,290,2011-11-25 21:53:00
3:53 PM,52.0,15.1,23,29.67,10.0,West,16.1,-,N/A,,Scattered Clouds,280,2011-11-25 22:53:00
4:53 PM,46.9,16.0,29,29.69,10.0,West,11.5,-,N/A,,Scattered Clouds,280,2011-11-25 23:53:00
5:53 PM,46.0,18.0,33,29.74,10.0,WNW,11.5,-,N/A,,Scattered Clouds,300,2011-11-26 00:53:00
6:45 PM,41.0,26.6,57,29.87,10.0,North,28.8,35.7,N/A,,Mostly Cloudy,360,2011-11-26 01:45:00
6:53 PM,41.0,28.0,60,29.83,10.0,NW,18.4,44.9,N/A,,Scattered Clouds,320,2011-11-26 01:53:00
7:04 PM,42.8,28.4,57,29.89,10.0,West,17.3,-,0.00,Rain,Light Rain,280,2011-11-26 02:04:00
7:53 PM,39.2,30.2,70,29.93,10.0,NNW,10.4,-,N/A,,Mostly Cloudy,330,2011-11-26 02:53:00
8:53 PM,36.0,25.0,64,29.91,10.0,NW,9.2,-,N/A,,Mostly Cloudy,320,2011-11-26 03:53:00
9:53 PM,39.9,23.0,51,29.93,10.0,West,17.3,27.6,N/A,,Mostly Cloudy,270,2011-11-26 04:53:00
10:53 PM,35.6,19.4,52,30.06,10.0,NNW,15.0,-,N/A,,Scattered Clouds,330,2011-11-26 05:53:00
11:09 PM,30.2,23.0,75,30.10,10.0,North,28.8,36.8,N/A,,Scattered Clouds,10,2011-11-26 06:09:00
11:53 PM,30.0,17.1,59,30.11,10.0,North,29.9,40.3,N/A,,Mostly Cloudy,360,2011-11-26 06:53:00